Location: Unspecified
(47.5840°N, 122.3000°W)
Time: 15:35:37
(UTC+00:00)

Okean 1 - Pass Details

Date: 09 December 2025
Orbit: 465 x 484 km, 82.5° (Epoch: 19 January)

Event Time Altitude Azimuth Distance (km) Brightness Sun altitude
Exits shadow 13:27:28 18° 15° (NNE) 1,232 5.1 -22.3°
Maximum altitude 13:29:44 38° 75° (ENE) 734 4.4 -21.9°
Drops below altitude 10° 13:33:03 10° 146° (SE) 1,617 6.3 -21.4°
Sets 13:35:13 0° 154° (SSE) 2,488 7.2 -21.0°
